Flag for Germany Weather past 2 weeks in Kerpen, North Rhine-Westphalia, Germany

Now
37 °F

Light rain. Fog.


Feels Like: 33 °F
Forecast: 38 / 44 °F
Wind: 6 mph from Southwest

Location: Noervenich

Current Time: Jan 25, 2015 at 5:28:23 PM

Latest Report: Jan 25, 2015 at 4:20 PM


Visibility: 2 mi

Pressure: 30.39 "Hg

Humidity: 93%

Dew point: 36 °F

Location of KerpenLocation

Historic Weather in Kerpen — Graph

°F

Kerpen temperature yesterday

Maximum temperature yesterday: 37 °F (at 5:20 PM)
Minimum temperature yesterday: 25 °F (at 3:20 AM)
Average temperature yesterday: 32 °F

Past Weeks' High & Low Weather Summary

 TemperatureHumidityPressure
High55 °F (Jan 13, 1:20 PM)100% (Jan 17, 6:20 AM)30.42 "Hg (Jan 17, 6:20 AM)
Low25 °F (Jan 24, 3:20 AM)55% (Jan 13, 1:20 PM)29.47 "Hg (Jan 15, 3:20 PM)
Average38 °F81%29.95 "Hg
* Reported Jan 10 4:20 PM — Jan 25 4:20 PM, Kerpen, Weather by CustomWeather, © 2014

Note: Actual official high and low records may vary slightly from our data, if they occured in-between our weather recording intervals... More about our weather records

Advertising

Kerpen weather history for previous 24 hours

 ConditionsComfort  
Time TempWeatherWind HumidityBarometerVisibility
4:20 PM
Jan 25
37 °FLight rain. Fog.6 mph93%30.39 "Hg2 mi
3:20 PM37 °FLight rain. Fog.7 mph93%30.39 "Hg2 mi
2:20 PM37 °FFog.3 mph87%30.36 "Hg3 mi
1:20 PM37 °FFog.5 mph87%30.39 "Hg3 mi
12:20 PM36 °FFog.7 mph93%30.39 "Hg3 mi
11:20 AM36 °FChilly.6 mph93%30.42 "Hg3 mi
10:20 AM36 °FChilly.6 mph93%30.42 "Hg3 mi
9:20 AM34 °FChilly.5 mph93%30.42 "Hg3 mi
8:20 AM34 °FChilly.6 mph93%30.39 "Hg3 mi
7:20 AM34 °FChilly.6 mph93%30.39 "Hg3 mi
6:20 AM32 °FChilly.3 mph93%30.39 "Hg3 mi
5:20 AM30 °FPassing clouds.6 mph100%30.36 "HgN/A
4:20 AM30 °FPassing clouds.6 mph93%30.36 "HgN/A
3:20 AM30 °FPassing clouds.7 mph93%30.36 "HgN/A
2:20 AM30 °FPassing clouds.7 mph93%30.33 "HgN/A
1:20 AM32 °FPassing clouds.8 mph93%30.33 "HgN/A
12:20 AM32 °FPassing clouds.7 mph93%30.33 "HgN/A
11:20 PM
Jan 24
34 °FPassing clouds.7 mph93%30.33 "HgN/A
10:20 PM34 °FPassing clouds.7 mph93%30.30 "HgN/A
9:20 PM34 °FPassing clouds.6 mph93%30.30 "HgN/A
8:20 PM34 °FPassing clouds.5 mph93%30.27 "HgN/A
7:20 PM36 °FPassing clouds.6 mph87%30.24 "HgN/A
6:20 PM36 °FChilly.7 mph93%30.21 "Hg4 mi
5:20 PM37 °FChilly.8 mph87%30.18 "Hg4 mi
Weather by CustomWeather, © 2014

See weather overviewHow to use our weather pages